Content
SEND FEEDBACK

Daily
Averages
Monthly
Summary
United States of America

TAMUNING, GUAM


Home > North America > United States > Guam
Elevation: 76 meters     Latitude: 13 29N     Longitude: 144 47E

WEATHER
 
SELECT A DAY
Number of Records: 351,545;   Date Range: 1/1/95 - 10/19/14
 
SHARE

PRINT THIS DATA

[ ← Previous Day ]
WEATHER ALMANAC - 19 APRIL, 2014
[ Next Day → ]
[ °F ]   °C
Weather ElementAverageHighLow
Temperature27.7 °C30.4 °C (12:58 pm)26 °C (12:09 am)
Dewpoint24.9 °C26 °C (8:03 am)24 °C (4:08 am)
Humidity85.1 %94 % (12:09 am)73 % (2:58 pm)
Barometer1008.8 hPa1010.2 hPa (8:03 am)1006.4 hPa (3:58 pm)
Wind Speed21.7 km/h29.6 km/h (12:18 pm)
Wind Gust37 km/h (11:58 am)
Weather ElementAverage
Visibility15.9 km
Wind DirectionESE (110.4 °)

Weather ElementTotal
Precipitation0.25 mm
Cooling Degree Days9.9 (Base 18.3)
Growing Degree Days18.2 (Base 10)
Averaged from 90 records on 19 April, 2014
WEATHER CONDITIONS BREAKOUT
WIND DIRECTION BREAKOUT
WEATHER BY HOUR - 19 APRIL, 2014
[ °F ]   °C
Local TimeTemperatureDewpointHumidityBarometerVisibilityWind DirectionWind SpeedGust SpeedPrecipitationEventsConditions
12:09 AM26 °C25 °C94 %1009.8 hPa16.1 kmENE (70°)16.7 km/hRainLight Rain
12:10 AM26 °C25 °C94 %1009.8 hPa16.1 kmENE (70°)18.5 km/hScattered Clouds
12:58 AM26 °C25 °C94 %1009.5 hPa16.1 kmENE (60°)18.5 km/hScattered Clouds
1:58 AM26 °C25 °C94 %1009.5 hPa16.1 kmENE (70°)11.1 km/hMostly Cloudy
2:58 AM26 °C25 °C94 %1009.1 hPa8 kmENE (60°)22.2 km/hRainLight Rain
3:37 AM26 °C25 °C94 %1008.5 hPa16.1 kmEast (90°)20.4 km/hScattered Clouds
3:47 AM26 °C25 °C94 %1008.5 hPa16.1 kmEast (100°)18.5 km/hLight Drizzle
3:51 AM26 °C25 °C94 %1008.5 hPa16.1 kmEast (90°)20.4 km/hMostly Cloudy
3:56 AM26 °C25 °C94 %1008.5 hPa14.5 kmEast (80°)22.2 km/hLight Drizzle
3:58 AM26.1 °C24.9 °C93 %1007.5 hPa12.9 kmEast (80°)22.2 km/h0 mmRainLight Rain
4:03 AM26 °C25 °C94 %1008.5 hPa9.7 kmEast (80°)16.7 km/hLight Drizzle
4:08 AM26 °C24 °C89 %1008.5 hPa14.5 kmEast (90°)16.7 km/hLight Drizzle
4:11 AM26 °C25 °C94 %1008.5 hPa16.1 kmEast (100°)16.7 km/hMostly Cloudy
4:16 AM26 °C25 °C94 %1008.5 hPa16.1 kmEast (100°)16.7 km/hScattered Clouds
4:41 AM26 °C25 °C94 %1008.8 hPa16.1 kmEast (80°)20.4 km/hMostly Cloudy
4:51 AM26 °C25 °C94 %1008.8 hPa16.1 kmEast (90°)16.7 km/hMostly Cloudy
4:58 AM26 °C24.9 °C94 %1007.8 hPa16.1 kmEast (100°)14.8 km/h0 mmMostly Cloudy
5:08 AM26 °C25 °C94 %1008.8 hPa16.1 kmEast (90°)16.7 km/hMostly Cloudy
5:13 AM26 °C25 °C94 %1008.8 hPa16.1 kmEast (90°)14.8 km/hMostly Cloudy
5:18 AM26 °C25 °C94 %1008.8 hPa16.1 kmEast (90°)14.8 km/hMostly Cloudy
5:58 AM26.1 °C24.9 °C93 %1007.8 hPa16.1 kmEast (90°)18.5 km/hMostly Cloudy
6:03 AM26 °C25 °C94 %1008.8 hPa16.1 kmEast (90°)22.2 km/hMostly Cloudy
6:13 AM26 °C25 °C94 %1008.8 hPa16.1 kmEast (90°)18.5 km/hMostly Cloudy
6:18 AM26 °C25 °C94 %1009.1 hPa16.1 kmEast (90°)16.7 km/hScattered Clouds
6:48 AM26 °C25 °C94 %1009.1 hPa16.1 kmEast (90°)16.7 km/hMostly Cloudy
6:58 AM26.3 °C25 °C93 %1008.5 hPa16.1 kmEast (80°)18.5 km/hMostly Cloudy
7:58 AM27.4 °C25.3 °C88 %1009.5 hPa16.1 kmEast (100°)20.4 km/hScattered Clouds
8:03 AM28 °C26 °C89 %1010.2 hPa16.1 kmEast (90°)20.4 km/h29.6 km/hMostly Cloudy
8:08 AM28 °C25 °C84 %1010.2 hPa16.1 kmEast (100°)20.4 km/h29.6 km/hMostly Cloudy
8:13 AM28 °C25 °C84 %1010.2 hPa16.1 kmEast (100°)22.2 km/hMostly Cloudy
8:58 AM28.2 °C25.4 °C85 %1009.5 hPa16.1 kmESE (110°)20.4 km/hMostly Cloudy
9:58 AM29.2 °C25.6 °C81 %1009.5 hPa16.1 kmESE (110°)22.2 km/h0.25 mmMostly Cloudy
10:08 AM29 °C25 °C79 %1010.2 hPa16.1 kmESE (120°)25.9 km/hScattered Clouds
10:13 AM29 °C25 °C79 %1009.8 hPa16.1 kmEast (100°)20.4 km/hMostly Cloudy
10:18 AM29 °C25 °C79 %1009.8 hPa16.1 kmESE (110°)24.1 km/hMostly Cloudy
10:23 AM30 °C25 °C74 %1009.8 hPa16.1 kmEast (100°)24.1 km/hScattered Clouds
10:28 AM30 °C25 °C74 %1009.8 hPa16.1 kmESE (110°)24.1 km/hMostly Cloudy
10:58 AM29.3 °C25.5 °C80 %1008.8 hPa16.1 kmESE (110°)24.1 km/h35.2 km/hMostly Cloudy
11:08 AM29 °C25 °C79 %1009.5 hPa16.1 kmESE (120°)20.4 km/hScattered Clouds
11:18 AM30 °C25 °C74 %1009.5 hPa16.1 kmESE (120°)25.9 km/hMostly Cloudy
11:23 AM29 °C25 °C79 %1009.5 hPa16.1 kmESE (120°)25.9 km/hMostly Cloudy
11:48 AM30 °C26 °C79 %1009.5 hPa16.1 kmEast (100°)22.2 km/hMostly Cloudy
11:58 AM29.6 °C25.7 °C79 %1008.1 hPa16.1 kmESE (110°)20.4 km/h37 km/hMostly Cloudy
12:13 PM30 °C25 °C74 %1009.1 hPa16.1 kmESE (120°)25.9 km/h37 km/hMostly Cloudy
12:18 PM30 °C25 °C74 %1009.1 hPa16.1 kmESE (120°)29.6 km/h37 km/hOvercast
12:28 PM30 °C25 °C74 %1008.8 hPa16.1 kmESE (120°)25.9 km/hOvercast
12:38 PM30 °C25 °C74 %1008.8 hPa16.1 kmSE (130°)29.6 km/hMostly Cloudy
12:48 PM30 °C25 °C74 %1008.8 hPa16.1 kmSE (130°)25.9 km/hMostly Cloudy
12:53 PM30 °C25 °C74 %1008.5 hPa16.1 kmESE (120°)24.1 km/hMostly Cloudy
12:58 PM30.4 °C25.4 °C74 %1008.5 hPa16.1 kmESE (110°)24.1 km/hMostly Cloudy
1:08 PM30 °C25 °C74 %1008.5 hPa16.1 kmESE (120°)24.1 km/hMostly Cloudy
1:18 PM30 °C25 °C74 %1008.1 hPa16.1 kmESE (120°)24.1 km/hMostly Cloudy
1:23 PM30 °C26 °C79 %1008.1 hPa16.1 kmESE (110°)20.4 km/hMostly Cloudy
1:53 PM30 °C25 °C74 %1007.8 hPa16.1 kmESE (120°)25.9 km/hMostly Cloudy
1:58 PM30 °C25 °C74 %1007.8 hPa16.1 kmESE (110°)24.1 km/hMostly Cloudy
2:38 PM30 °C25 °C74 %1007.5 hPa16.1 kmESE (120°)27.8 km/hMostly Cloudy
2:58 PM29.9 °C24.6 °C73 %1007.5 hPa16.1 kmESE (110°)25.9 km/hPartly Cloudy
3:18 PM29 °C25 °C79 %1007.5 hPa16.1 kmESE (110°)24.1 km/hMostly Cloudy
3:58 PM29.1 °C24.7 °C77 %1006.4 hPa16.1 kmSE (130°)25.9 km/hScattered Clouds
4:08 PM29 °C25 °C79 %1007.5 hPa16.1 kmESE (120°)22.2 km/hMostly Cloudy
4:43 PM29 °C25 °C79 %1007.8 hPa16.1 kmESE (110°)25.9 km/hScattered Clouds
4:48 PM29 °C25 °C79 %1007.5 hPa16.1 kmESE (120°)25.9 km/hMostly Cloudy
4:58 PM28.7 °C24.8 °C79 %1006.4 hPa16.1 kmESE (120°)24.1 km/hMostly Cloudy
5:03 PM28 °C25 °C84 %1007.8 hPa16.1 kmESE (120°)25.9 km/hScattered Clouds
5:53 PM28 °C24 °C79 %1007.8 hPa16.1 kmESE (120°)20.4 km/hMostly Cloudy
5:58 PM27.5 °C24.4 °C83 %1007.1 hPa16.1 kmSE (130°)24.1 km/h31.5 km/hMostly Cloudy
6:38 PM27 °C25 °C89 %1008.5 hPa16.1 kmSE (130°)22.2 km/hScattered Clouds
6:43 PM27 °C25 °C89 %1008.5 hPa16.1 kmSE (130°)22.2 km/hMostly Cloudy
6:58 PM27 °C25 °C89 %1007.8 hPa16.1 kmSE (130°)24.1 km/hMostly Cloudy
7:03 PM27 °C25 °C89 %1008.8 hPa16.1 kmSE (130°)24.1 km/hMostly Cloudy
7:23 PM27 °C25 °C89 %1009.1 hPa16.1 kmSE (130°)24.1 km/hScattered Clouds
7:28 PM27 °C25 °C89 %1009.1 hPa16.1 kmSE (130°)24.1 km/hMostly Cloudy
7:38 PM27 °C25 °C89 %1009.1 hPa16.1 kmESE (120°)24.1 km/hMostly Cloudy
7:58 PM27.2 °C24.7 °C86 %1008.5 hPa16.1 kmSE (130°)22.2 km/hScattered Clouds
8:03 PM27 °C25 °C89 %1009.5 hPa16.1 kmSE (130°)22.2 km/hMostly Cloudy
8:18 PM27 °C24 °C84 %1009.5 hPa16.1 kmSE (130°)20.4 km/hMostly Cloudy
8:33 PM27 °C24 °C84 %1009.8 hPa16.1 kmSE (130°)22.2 km/hScattered Clouds
8:58 PM27.1 °C24.7 °C87 %1009.5 hPa16.1 kmSE (140°)20.4 km/hScattered Clouds
9:08 PM27 °C25 °C89 %1010.2 hPa16.1 kmSE (130°)22.2 km/hMostly Cloudy
9:38 PM27 °C24 °C84 %1010.2 hPa16.1 kmSE (130°)18.5 km/hScattered Clouds
9:58 PM27 °C24.3 °C85 %1009.5 hPa16.1 kmSE (130°)20.4 km/hScattered Clouds
10:03 PM27 °C24 °C84 %1010.2 hPa16.1 kmSE (130°)22.2 km/hMostly Cloudy
10:28 PM27 °C24 °C84 %1010.2 hPa16.1 kmSE (130°)20.4 km/hScattered Clouds
10:58 PM26.9 °C24.3 °C86 %1009.5 hPa16.1 kmSE (140°)20.4 km/hMostly Cloudy
11:18 PM27 °C25 °C89 %1010.2 hPa16.1 kmSE (130°)24.1 km/hMostly Cloudy
11:23 PM27 °C25 °C89 %1010.2 hPa16.1 kmSE (140°)24.1 km/hMostly Cloudy
11:28 PM27 °C25 °C89 %1010.2 hPa16.1 kmSE (130°)22.2 km/hMostly Cloudy
11:43 PM27 °C25 °C89 %1010.2 hPa16.1 kmSE (130°)20.4 km/hMostly Cloudy
11:53 PM27 °C25 °C89 %1010.2 hPa16.1 kmSE (140°)16.7 km/hMostly Cloudy
11:58 PM26.8 °C24.9 °C89 %1009.5 hPa16.1 kmSE (140°)18.5 km/hMostly Cloudy
Hourly data recorded from PGUA, located 0 kilometers away from Tamuning, Guam







STORIES FROM OUR PARTNERS